Spokane, WA
on Sunday, January 13, 2013

Sunday
Previous Day Next Day
Daily Summary
 ActualAverageRecord
Temperature
Mean Temperature °F 29°F  
Max Temperature 22°F 34°F 53°F (1945)
Min Temperature 14°F 25°F -13°F (1909)
Degree Days
Heating Degree Days 47 36  
Month to date heating degree days 527 478  
Since 1 July heating degree days 2952 3312  
Cooling Degree Days 0 0  
Month to date cooling degree days 0 0  
Year to date cooling degree days 0 0  
Moisture
Dew Point 12°F   
Average Humidity 83    
Maximum Humidity 92    
Minimum Humidity 73    
Precipitation
Precipitation 0.01 in 0.06 in 0.44 in (1950)
Month to date precipitation 0.99 0.83  
Year to date precipitation 0.99 0.83  
Snow
Snow 0.20 in 0.40 in 8.00 in (1950)
Month to date snowfall 11.2 6.0  
Since 1 July snowfall 35.2 28.1  
Snow Depth 1.00 in   
Wind
Wind Speed 2 mph   
Max Wind Speed 8 mph   
Max Gust Speed 9 mph   
Visibility 7 miles   
Events Snow   

Key: T is trace of precipitation, MM is missing value
Source: NWS Daily Summary
Time(PST)TemperatureDew PointHumidity Pressure Visibility Wind DirectionWind SpeedGust SpeedPrecipitationEvents Conditions
12:36 AM 15.8°F 12.2°F 86% 30.25 in 7.0 miles Calm Calm - 0.00 in Snow Light Snow
12:53 AM 17.1°F 12.9°F 84% 30.37 in 7.0 miles Calm Calm - 0.00 in Snow Light Snow
1:46 AM 15.8°F 12.2°F 86% 30.27 in 2.5 miles SSE 3.5 mph - 0.00 in Snow Light Snow
1:53 AM 16.0°F 12.0°F 84% 30.38 in 2.0 miles SSE 4.6 mph - 0.00 in Snow Light Snow
2:53 AM 15.1°F 12.0°F 88% 30.38 in 2.0 miles SSE 4.6 mph - 0.01 in Snow Light Snow
3:34 AM 15.8°F 10.4°F 79% 30.27 in 4.0 miles South 3.5 mph - 0.00 in Snow Light Snow
3:53 AM 15.1°F 12.0°F 88% 30.39 in 5.0 miles SSE 3.5 mph - 0.00 in Snow Light Snow
4:53 AM 14.0°F 10.9°F 88% 30.40 in 5.0 miles SE 4.6 mph - 0.00 in Snow Light Snow
5:53 AM 14.0°F 10.9°F 88% 30.42 in 6.0 miles Calm Calm - 0.00 in Snow Light Snow
6:15 AM 14.0°F 10.4°F 86% 30.30 in 6.0 miles Calm Calm - 0.00 in   Overcast
6:53 AM 14.0°F 12.0°F 92% 30.45 in 6.0 miles Calm Calm - 0.00 in   Overcast
7:53 AM 15.1°F 12.0°F 88% 30.48 in 3.0 miles North 4.6 mph - 0.00 in Snow Light Snow
7:58 AM 15.8°F 12.2°F 86% 30.34 in 2.5 miles NE 3.5 mph - 0.00 in Snow Light Snow
8:53 AM 16.0°F 12.0°F 84% 30.49 in 2.5 miles Calm Calm - 0.00 in Snow Light Snow
9:18 AM 15.8°F 12.2°F 86% 30.35 in 5.0 miles Calm Calm - 0.00 in   Scattered Clouds
9:53 AM 16.0°F 14.0°F 92% 30.48 in 5.0 miles Calm Calm - 0.00 in   Mostly Cloudy
10:33 AM 17.6°F 12.2°F 79% 30.35 in 5.0 miles Calm Calm - N/A   Mostly Cloudy
10:53 AM 17.1°F 15.1°F 92% 30.47 in 6.0 miles Calm Calm - N/A   Mostly Cloudy
11:11 AM 17.6°F 14.0°F 86% 30.35 in 5.0 miles Calm Calm - N/A   Mostly Cloudy
11:53 AM 18.0°F 15.1°F 88% 30.46 in 6.0 miles Calm Calm - N/A   Mostly Cloudy
12:53 PM 19.0°F 15.1°F 85% 30.44 in 10.0 miles Calm Calm - N/A   Scattered Clouds
1:53 PM 19.9°F 14.0°F 78% 30.44 in 10.0 miles Calm Calm - N/A   Scattered Clouds
2:53 PM 18.0°F 12.9°F 81% 30.45 in 10.0 miles Calm Calm - N/A   Mostly Cloudy
3:16 PM 19.4°F 14.0°F 80% 30.33 in 10.0 miles Calm Calm - N/A   Mostly Cloudy
3:53 PM 18.0°F 12.9°F 81% 30.45 in 10.0 miles Calm Calm - N/A   Mostly Cloudy
4:53 PM 19.0°F 12.9°F 77% 30.45 in 10.0 miles Calm Calm - N/A   Mostly Cloudy
5:53 PM 19.0°F 12.0°F 74% 30.45 in 10.0 miles South 5.8 mph - N/A   Mostly Cloudy
6:53 PM 16.0°F 12.0°F 84% 30.46 in 10.0 miles South 3.5 mph - N/A   Overcast
7:53 PM 16.0°F 10.9°F 81% 30.46 in 10.0 miles South 3.5 mph - N/A   Overcast
8:53 PM 16.0°F 10.9°F 81% 30.46 in 10.0 miles SSE 5.8 mph - N/A   Overcast
9:53 PM 16.0°F 10.9°F 81% 30.46 in 10.0 miles SE 5.8 mph - N/A   Overcast
10:53 PM 16.0°F 10.9°F 81% 30.45 in 5.0 miles SSE 6.9 mph - 0.00 in Snow Light Snow
11:53 PM 16.0°F 12.0°F 84% 30.46 in 8.0 miles SSE 5.8 mph - 0.00 in Snow Light Snow
Moon Phase
Jan. 13 Jan. 18 Jan. 26 Feb. 03 Feb. 10
Sunrise:07:34 AM (PST) Moon Rise:08:23 AM (PST)1/13
Sunset:04:23 PM (PST) Moon Set:07:22 PM (PST)1/13

Copyright © 2014 The Weather Underground, Inc.